 day,  time,  air_temp(C),  RH(%),  ground_temp10cm(C),  ground_temp20cm(C),  ground_temp40cm(C),  precipitation(mm/h),  Solar_Radiation(MJ/m2h),  lack, 
 05/11/01, 01:00,  -2.2,  97,   8.0,  10.1,  11.9,   0.0,  0.00, 
 05/11/01, 02:00,  -1.8,  97,   7.9,  10.0,  11.9,   0.0,  0.00, 
 05/11/01, 03:00,  -1.7,  99,   7.7,   9.9,  12.0,   0.0,  0.00, 
 05/11/01, 04:00,  -0.9,  99,   7.5,   9.8,  11.8,   0.0,  0.00, 
 05/11/01, 05:00,  -1.9,  95,   7.4,   9.8,  11.8,   0.0,  0.00, 
 05/11/01, 06:00,  -3.2,  96,   7.2,   9.7,  11.8,   0.0,  0.00, 
 05/11/01, 07:00,  -2.3,  89,   7.2,   9.6,  11.8,   0.0,  0.00, 
 05/11/01, 08:00,   0.3,  83,   7.0,   9.5,  11.8,   0.0,  0.85, 
 05/11/01, 09:00,   4.3,  60,   6.9,   9.4,  11.8,   0.0,  1.71, 
 05/11/01, 10:00,   4.7,  71,   6.9,   9.3,  11.8,   0.0,  2.04, 
 05/11/01, 11:00,   6.9,  69,   7.4,   9.2,  11.8,   0.0,  2.40, 
 05/11/01, 12:00,   9.0,  57,   7.8,   9.2,  11.8,   0.0,  2.56, 
 05/11/01, 13:00,   8.4,  55,   8.4,   9.1,  11.7,   0.0,  2.45, 
 05/11/01, 14:00,  10.2,  49,   9.1,   9.3,  11.7,   0.0,  2.11, 
 05/11/01, 15:00,   9.3,  40,   9.5,   9.2,  11.7,   0.0,  1.52, 
 05/11/01, 16:00,   8.1,  50,   9.5,   9.3,  11.7,   0.0,  0.79, 
 05/11/01, 17:00,   6.1,  60,   9.4,   9.4,  11.6,   0.0,  0.10, 
 05/11/01, 18:00,   5.4,  63,   9.2,   9.5,  11.6,   0.0,  0.00, 
 05/11/01, 19:00,   4.5,  71,   9.0,   9.6,  11.5,   0.0,  0.00, 
 05/11/01, 20:00,   2.8,  80,   8.8,   9.6,  11.5,   0.0,  0.00, 
 05/11/01, 21:00,   1.5,  79,   8.6,   9.7,  11.5,   0.0,  0.00, 
 05/11/01, 22:00,   1.0,  82,   8.3,   9.6,  11.5,   0.0,  0.00, 
 05/11/01, 23:00,   1.6,  78,   8.1,   9.6,  11.5,   0.0,  0.00, 
 05/11/02, 00:00,   1.3,  77,   7.9,   9.6,  11.5,   0.0,  0.00, 
 05/11/02, 01:00,   0.4,  82,   7.7,   9.5,  11.4,   0.0,  0.00, 
 05/11/02, 02:00,   1.7,  81,   7.6,   9.5,  11.4,   0.0,  0.00, 
 05/11/02, 03:00,   0.0,  86,   7.4,   9.4,  11.4,   0.0,  0.00, 
 05/11/02, 04:00,   0.3,  87,   7.2,   9.3,  11.4,   0.0,  0.00, 
 05/11/02, 05:00,   0.3,  91,   7.1,   9.3,  11.4,   0.0,  0.00, 
 05/11/02, 06:00,   0.0,  91,   6.9,   9.2,  11.3,   0.0,  0.00, 
 05/11/02, 07:00,   1.5,  81,   6.8,   9.1,  11.4,   0.0,  0.00, 
 05/11/02, 08:00,   2.8,  78,   6.7,   9.0,  11.4,   0.0,  0.68, 
 05/11/02, 09:00,   5.7,  66,   6.6,   8.9,  11.4,   0.0,  1.41, 
 05/11/02, 10:00,   8.1,  55,   6.8,   8.9,  11.3,   0.0,  2.02, 
 05/11/02, 11:00,   8.3,  63,   7.2,   8.8,  11.3,   0.0,  2.37, 
 05/11/02, 12:00,   8.9,  65,   7.6,   8.8,  11.3,   0.0,  2.53, 
 05/11/02, 13:00,  10.8,  50,   8.3,   8.8,  11.3,   0.0,  2.41, 
 05/11/02, 14:00,  10.3,  45,   8.9,   8.8,  11.3,   0.0,  2.08, 
 05/11/02, 15:00,  10.5,  42,   9.3,   9.0,  11.3,   0.0,  1.38, 
 05/11/02, 16:00,  10.0,  47,   9.4,   9.0,  11.2,   0.0,  0.90, 
 05/11/02, 17:00,   7.1,  68,   9.3,   9.1,  11.2,   0.0,  0.10, 
 05/11/02, 18:00,   5.7,  72,   9.2,   9.2,  11.2,   0.0,  0.00, 
 05/11/02, 19:00,   6.5,  67,   9.0,   9.3,  11.2,   0.0,  0.00, 
 05/11/02, 20:00,   5.3,  68,   8.8,   9.4,  11.1,   0.0,  0.00, 
 05/11/02, 21:00,   4.6,  72,   8.7,   9.4,  11.1,   0.0,  0.00, 
 05/11/02, 22:00,   5.5,  64,   8.5,   9.4,  11.1,   0.0,  0.00, 
 05/11/02, 23:00,   6.6,  61,   8.4,   9.4,  11.1,   0.0,  0.00, 
 05/11/03, 00:00,   6.1,  64,   8.3,   9.4,  11.1,   0.0,  0.00, 
 05/11/03, 01:00,   5.9,  70,   8.2,   9.4,  11.1,   0.0,  0.00, 
 05/11/03, 02:00,   6.6,  61,   8.2,   9.3,  11.1,   0.0,  0.00, 
 05/11/03, 03:00,   6.8,  59,   8.2,   9.3,  11.1,   0.0,  0.00, 
 05/11/03, 04:00,   5.6,  81,   8.1,   9.3,  11.1,   0.0,  0.00, 
 05/11/03, 05:00,   7.2,  69,   8.1,   9.3,  11.1,   0.0,  0.00, 
 05/11/03, 06:00,   7.6,  80,   8.1,   9.3,  11.1,   0.0,  0.00, 
 05/11/03, 07:00,   7.7,  83,   8.1,   9.2,  11.1,   0.0,  0.00, 
 05/11/03, 08:00,   8.4,  81,   8.1,   9.2,  11.0,   0.0,  0.12, 
 05/11/03, 09:00,   8.5,  81,   8.2,   9.2,  11.0,   0.0,  0.20, 
 05/11/03, 10:00,   7.5,  89,   8.2,   9.2,  11.0,   0.0,  0.02, 
 05/11/03, 11:00,   6.7,  99,   8.3,   9.2,  11.0,   0.0,  0.07, 
 05/11/03, 12:00,   6.3,  99,   8.3,   9.2,  11.0,   0.0,  0.13, 
 05/11/03, 13:00,   7.0,  99,   8.4,   9.2,  11.0,   0.0,  0.15, 
 05/11/03, 14:00,   7.2,  99,   8.4,   9.2,  11.0,   0.0,  0.08, 
 05/11/03, 15:00,   7.2,  99,   8.5,   9.2,  11.0,   0.0,  0.03, 
 05/11/03, 16:00,   7.0,  99,   8.5,   9.2,  11.0,   0.0,  0.01, 
 05/11/03, 17:00,   7.0,  99,   8.5,   9.3,  11.0,   0.0,  0.00, 
 05/11/03, 18:00,   6.6,  99,   8.5,   9.2,  11.0,   0.0,  0.00, 
 05/11/03, 19:00,   6.6,  99,   8.5,   9.2,  10.9,   0.0,  0.00, 
 05/11/03, 20:00,   6.3,  99,   8.5,   9.2,  10.9,   0.0,  0.00, 
 05/11/03, 21:00,   6.4,  99,   8.5,   9.2,  10.9,   0.0,  0.00, 
 05/11/03, 22:00,   6.2,  99,   8.5,   9.2,  10.9,   0.0,  0.00, 
 05/11/03, 23:00,   5.2,  99,   8.4,   9.2,  10.9,   0.0,  0.00, 
 05/11/04, 00:00,   5.9,  99,   8.4,   9.2,  10.9,   0.0,  0.00, 
 05/11/04, 01:00,   7.0,  96,   8.3,   9.2,  10.9,   0.0,  0.00, 
 05/11/04, 02:00,   6.1,  95,   8.3,   9.2,  10.9,   0.0,  0.00, 
 05/11/04, 03:00,   5.9,  89,   8.2,   9.2,  10.9,   0.0,  0.00, 
 05/11/04, 04:00,   4.2,  97,   8.1,   9.2,  10.9,   0.0,  0.00, 
 05/11/04, 05:00,   5.6,  83,   8.0,   9.2,  10.9,   0.0,  0.00, 
 05/11/04, 06:00,   5.3,  77,   7.8,   9.1,  10.8,   0.0,  0.00, 
 05/11/04, 07:00,   5.8,  66,   7.7,   9.1,  10.8,   0.0,  0.00, 
 05/11/04, 08:00,   6.6,  75,   7.6,   9.1,  10.8,   0.0,  0.60, 
 05/11/04, 09:00,   9.2,  67,   7.5,   9.1,  10.8,   0.0,  1.31, 
 05/11/04, 10:00,  10.7,  61,   7.8,   9.1,  10.9,   0.0,  1.88, 
 05/11/04, 11:00,  10.1,  70,   8.2,   9.1,  10.9,   0.0,  2.25, 
 05/11/04, 12:00,  11.4,  67,   8.7,   9.0,  10.9,   0.0,  2.43, 
 05/11/04, 13:00,  11.3,  74,   9.2,   9.1,  10.9,   0.0,  2.32, 
 05/11/04, 14:00,  11.2,  64,   9.8,   9.1,  10.9,   0.0,  1.99, 
 05/11/04, 15:00,  10.8,  61,  10.2,   9.2,  10.8,   0.0,  1.40, 
 05/11/04, 16:00,   9.7,  54,  10.3,   9.3,  10.9,   0.0,  0.67, 
 05/11/04, 17:00,   7.9,  61,  10.1,   9.5,  10.9,   0.0,  0.05, 
 05/11/04, 18:00,   8.8,  54,   9.8,   9.5,  10.7,   0.0,  0.00, 
 05/11/04, 19:00,   5.2,  75,   9.6,   9.7,  10.7,   0.0,  0.00, 
 05/11/04, 20:00,   4.8,  78,   9.4,   9.7,  10.7,   0.0,  0.00, 
 05/11/04, 21:00,   6.2,  74,   9.2,   9.8,  10.7,   0.0,  0.00, 
 05/11/04, 22:00,   4.8,  84,   9.0,   9.7,  10.7,   0.0,  0.00, 
 05/11/04, 23:00,   4.8,  74,   8.8,   9.6,  10.7,   0.0,  0.00, 
 05/11/05, 00:00,   4.8,  76,   8.7,   9.6,  10.7,   0.0,  0.00, 
 05/11/05, 01:00,   7.7,  46,   8.5,   9.6,  10.7,   0.0,  0.00, 
 05/11/05, 02:00,   5.7,  57,   8.3,   9.5,  10.7,   0.0,  0.00, 
 05/11/05, 03:00,   7.7,  44,   8.2,   9.5,  10.8,   0.0,  0.00, 
 05/11/05, 04:00,   7.5,  39,   8.0,   9.4,  10.8,   0.0,  0.00, 
 05/11/05, 05:00,   3.7,  67,   7.9,   9.4,  10.8,   0.0,  0.00, 
 05/11/05, 06:00,   5.6,  49,   7.8,   9.3,  10.8,   0.0,  0.00, 
 05/11/05, 07:00,   5.7,  51,   7.6,   9.2,  10.8,   0.0,  0.01, 
 05/11/05, 08:00,   9.4,  44,   7.5,   9.2,  10.8,   0.0,  0.54, 
 05/11/05, 09:00,  10.2,  46,   7.5,   9.2,  10.8,   0.0,  1.25, 
 05/11/05, 10:00,   9.5,  62,   7.6,   9.2,  10.8,   0.0,  1.81, 
 05/11/05, 11:00,  10.4,  62,   8.1,   9.1,  10.8,   0.0,  2.19, 
 05/11/05, 12:00,  12.1,  58,   8.5,   9.1,  10.7,   0.0,  2.36, 
 05/11/05, 13:00,  12.1,  57,   9.0,   9.1,  10.7,   0.0,  2.26, 
 05/11/05, 14:00,  11.4,  57,   9.6,   9.1,  10.7,   0.0,  1.92, 
 05/11/05, 15:00,  11.3,  61,  10.0,   9.2,  10.7,   0.0,  1.33, 
 05/11/05, 16:00,  10.5,  63,  10.0,   9.3,  10.7,   0.0,  0.63, 
 05/11/05, 17:00,   8.6,  71,   9.9,   9.4,  10.7,   0.0,  0.07, 
 05/11/05, 18:00,   9.7,  60,   9.7,   9.5,  10.7,   0.0,  0.00, 
 05/11/05, 19:00,   7.0,  69,   9.5,   9.5,  10.7,   0.0,  0.00, 
 05/11/05, 20:00,   5.7,  74,   9.3,   9.6,  10.7,   0.0,  0.00, 
 05/11/05, 21:00,   5.8,  70,   9.1,   9.6,  10.7,   0.0,  0.00, 
 05/11/05, 22:00,   8.1,  63,   8.9,   9.6,  10.7,   0.0,  0.00, 
 05/11/05, 23:00,   7.9,  67,   8.8,   9.6,  10.7,   0.0,  0.00, 
 05/11/06, 00:00,   6.7,  69,   8.6,   9.6,  10.7,   0.0,  0.00, 
 05/11/06, 01:00,   8.3,  60,   8.5,   9.5,  10.7,   0.0,  0.00, 
 05/11/06, 02:00,   7.8,  61,   8.3,   9.5,  10.7,   0.0,  0.00, 
 05/11/06, 03:00,   6.9,  60,   8.2,   9.5,  10.7,   0.0,  0.00, 
 05/11/06, 04:00,   5.4,  70,   8.2,   9.4,  10.7,   0.0,  0.00, 
 05/11/06, 05:00,   7.0,  73,   8.1,   9.4,  10.7,   0.0,  0.00, 
 05/11/06, 06:00,   6.8,  76,   8.0,   9.3,  10.7,   0.0,  0.00, 
 05/11/06, 07:00,   5.8,  79,   7.9,   9.3,  10.7,   0.0,  0.00, 
 05/11/06, 08:00,   7.3,  70,   7.9,   9.2,  10.7,   0.0,  0.12, 
 05/11/06, 09:00,   7.6,  69,   7.9,   9.2,  10.7,   0.0,  0.25, 
 05/11/06, 10:00,   8.7,  61,   8.0,   9.1,  10.7,   0.0,  0.24, 
 05/11/06, 11:00,   9.4,  56,   8.1,   9.1,  10.7,   0.0,  0.41, 
 05/11/06, 12:00,  10.6,  44,   8.2,   9.1,  10.6,   0.0,  0.20, 
 05/11/06, 13:00,  10.6,  51,   8.2,   9.1,  10.7,   0.0,  0.28, 
 05/11/06, 14:00,   7.9,  88,   8.3,   9.1,  10.7,   0.0,  0.31, 
 05/11/06, 15:00,   8.1,  87,   8.4,   9.1,  10.6,   0.0,  0.20, 
 05/11/06, 16:00,   7.9,  91,   8.4,   9.1,  10.6,   0.0,  0.10, 
 05/11/06, 17:00,   8.9,  86,   8.4,   9.1,  10.6,   0.0,  0.01, 
 05/11/06, 18:00,   7.9,  99,   8.4,   9.1,  10.6,   0.5,  0.00, 
 05/11/06, 19:00,   8.8,  99,   8.4,   9.1,  10.6,   3.5,  0.00, 
 05/11/06, 20:00,   9.1,  99,   8.4,   9.0,  10.6,   9.5,  0.00, 
 05/11/06, 21:00,   9.3,  99,   8.4,   9.0,  10.4,   3.5,  0.00, 
 05/11/06, 22:00,   9.3,  99,   8.4,   9.0,  10.5,   1.0,  0.00, 
 05/11/06, 23:00,   9.0,  99,   8.5,   9.0,  10.4,   0.5,  0.00, 
 05/11/07, 00:00,   9.1,  99,   8.5,   8.9,  10.4,   1.0,  0.00, 
 05/11/07, 01:00,   9.8,  99,   8.5,   9.0,  10.4,   0.5,  0.00, 
 05/11/07, 02:00,  10.1,  99,   8.6,   9.0,  10.4,   0.0,  0.00, 
 05/11/07, 03:00,  10.2,  99,   8.6,   9.0,  10.4,   0.5,  0.00, 
 05/11/07, 04:00,   9.3,  99,   8.7,   9.0,  10.3,   2.0,  0.00, 
 05/11/07, 05:00,   8.3,  99,   8.7,   9.0,  10.3,   0.5,  0.00, 
 05/11/07, 06:00,   7.1,  99,   8.7,   9.0,  10.3,   0.0,  0.00, 
 05/11/07, 07:00,   6.0,  97,   8.7,   9.0,  10.3,   0.0,  0.00, 
 05/11/07, 08:00,   7.6,  83,   8.6,   9.1,  10.3,   0.0,  0.53, 
 05/11/07, 09:00,   9.9,  71,   8.6,   9.1,  10.3,   0.0,  1.30, 
 05/11/07, 10:00,   9.0,  73,   8.6,   9.1,  10.3,   0.0,  0.90, 
 05/11/07, 11:00,   9.0,  73,   8.8,   9.1,  10.3,   0.0,  1.00, 
 05/11/07, 12:00,   8.9,  73,   9.0,   9.1,  10.3,   0.0,  1.17, 
 05/11/07, 13:00,   6.5,  95,   9.2,   9.1,  10.3,   0.0,  0.34, 
 05/11/07, 14:00,   7.4,  99,   9.3,   9.2,  10.3,   0.5,  0.68, 
 05/11/07, 15:00,   6.0,  99,   9.3,   9.2,  10.3,   1.5,  0.10, 
 05/11/07, 16:00,   6.0,  99,   9.3,   9.2,  10.3,   1.0,  0.10, 
 05/11/07, 17:00,   4.1,  99,   9.2,   9.3,  10.3,   1.5,  0.00, 
 05/11/07, 18:00,   4.0,  97,   9.1,   9.3,  10.3,   1.0,  0.00, 
 05/11/07, 19:00,   4.3,  95,   9.0,   9.3,  10.3,   0.0,  0.00, 
 05/11/07, 20:00,   3.8,  98,   8.8,   9.3,  10.4,   0.5,  0.00, 
 05/11/07, 21:00,   3.9,  99,   8.7,   9.3,  10.3,   0.5,  0.00, 
 05/11/07, 22:00,   3.7,  97,   8.6,   9.3,  10.3,   0.0,  0.00, 
 05/11/07, 23:00,   3.7,  95,   8.4,   9.3,  10.3,   0.0,  0.00, 
 05/11/08, 00:00,   3.6,  92,   8.3,   9.2,  10.4,   0.0,  0.00, 
 05/11/08, 01:00,   2.7,  93,   8.1,   9.2,  10.3,   0.0,  0.00, 
 05/11/08, 02:00,   2.3,  93,   8.0,   9.2,  10.3,   0.0,  0.00, 
 05/11/08, 03:00,   2.2,  89,   7.8,   9.1,  10.3,   0.0,  0.00, 
 05/11/08, 04:00,   0.4,  97,   7.6,   9.0,  10.3,   0.0,  0.00, 
 05/11/08, 05:00,   0.5,  94,   7.5,   9.0,  10.3,   0.0,  0.00, 
 05/11/08, 06:00,   0.8,  86,   7.3,   8.9,  10.3,   0.0,  0.00, 
 05/11/08, 07:00,   3.2,  61,   7.2,   8.9,  10.3,   0.0,  0.01, 
 05/11/08, 08:00,   4.0,  68,   7.0,   8.8,  10.3,   0.0,  0.47, 
 05/11/08, 09:00,   4.9,  64,   6.9,   8.7,  10.3,   0.0,  0.75, 
 05/11/08, 10:00,   6.5,  70,   6.9,   8.7,  10.4,   0.0,  0.82, 
 05/11/08, 11:00,   7.7,  72,   7.2,   8.7,  10.4,   0.0,  2.01, 
 05/11/08, 12:00,   6.8,  72,   7.4,   8.6,  10.4,   0.0,  1.29, 
 05/11/08, 13:00,   5.1,  86,   7.6,   8.5,  10.2,   0.0,  0.21, 
 05/11/08, 14:00,   8.0,  65,   7.7,   8.6,  10.3,   0.0,  1.40, 
 05/11/08, 15:00,   5.3,  84,   7.9,   8.5,  10.2,   0.0,  0.14, 
 05/11/08, 16:00,   4.7,  84,   8.0,   8.5,  10.2,   0.0,  0.07, 
 05/11/08, 17:00,   3.6,  78,   8.0,   8.6,  10.3,   0.0,  0.04, 
 05/11/08, 18:00,   3.0,  80,   7.9,   8.5,  10.2,   0.0,  0.00, 
 05/11/08, 19:00,   2.1,  81,   7.8,   8.7,  10.3,   0.0,  0.00, 
 05/11/08, 20:00,   1.0,  89,   7.7,   8.7,  10.2,   0.0,  0.00, 
 05/11/08, 21:00,   1.7,  70,   7.6,   8.6,  10.1,   0.0,  0.00, 
 05/11/08, 22:00,   1.0,  75,   7.4,   8.7,  10.1,   0.0,  0.00, 
 05/11/08, 23:00,   0.6,  84,   7.3,   8.6,  10.2,   0.0,  0.00, 
 05/11/09, 00:00,  -0.2,  85,   7.2,   8.6,  10.2,   0.0,  0.00, 
 05/11/09, 01:00,  -0.8,  81,   7.1,   8.6,  10.1,   0.0,  0.00, 
 05/11/09, 02:00,  -0.4,  73,   6.8,   8.4,  10.1,   0.0,  0.00, 
 05/11/09, 03:00,   0.0,  70,   6.7,   8.4,  10.1,   0.0,  0.00, 
 05/11/09, 04:00,  -0.2,  63,   6.5,   8.3,  10.1,   0.0,  0.00, 
 05/11/09, 05:00,  -1.0,  68,   6.4,   8.3,  10.1,   0.0,  0.00, 
 05/11/09, 06:00,   0.7,  65,   6.3,   8.3,  10.1,   0.0,  0.00, 
 05/11/09, 07:00,   1.1,  77,   6.1,   8.2,  10.1,   0.0,  0.00, 
 05/11/09, 08:00,   1.4,  81,   6.0,   8.1,  10.0,   0.0,  0.01, 
 05/11/09, 09:00,   1.7,  85,   6.0,   8.0,  10.0,   0.0,  0.21, 
 05/11/09, 10:00,   2.6,  80,   6.0,   8.0,  10.0,   0.0,  0.53, 
 05/11/09, 11:00,   2.8,  85,   6.1,   7.9,  10.0,   0.0,  0.66, 
 05/11/09, 12:00,   4.0,  80,   6.3,   7.9,  10.0,   0.0,  1.35, 
 05/11/09, 13:00,   4.5,  71,   6.5,   7.7,  10.0,   0.0,  0.85, 
 05/11/09, 14:00,   5.0,  72,   6.7,   7.7,   9.9,   0.0,  0.69, 
 05/11/09, 15:00,   4.5,  72,   7.0,   7.8,   9.9,   0.0,  0.48, 
 05/11/09, 16:00,   3.1,  95,   7.1,   7.8,   9.9,   0.0,  0.06, 
 05/11/09, 17:00,   2.8,  96,   7.1,   7.9,   9.9,   0.0,  0.01, 
 05/11/09, 18:00,   2.4,  99,   7.1,   7.9,  10.0,   0.0,  0.00, 
 05/11/09, 19:00,   2.3,  99,   7.0,   7.9,   9.8,   0.0,  0.00, 
 05/11/09, 20:00,   2.4,  95,   6.9,   7.9,   9.8,   0.0,  0.00, 
 05/11/09, 21:00,   1.1,  99,   6.7,   7.8,   9.8,   0.0,  0.00, 
 05/11/09, 22:00,   1.0,  97,   6.7,   7.9,   9.8,   0.0,  0.00, 
 05/11/09, 23:00,   1.3,  96,   6.5,   7.9,   9.8,   0.0,  0.00, 
 05/11/10, 00:00,   1.7,  93,   6.4,   7.9,   9.8,   0.0,  0.00, 
 05/11/10, 01:00,   1.3,  93,   6.3,   7.8,   9.8,   0.0,  0.00, 
 05/11/10, 02:00,   1.4,  88,   6.2,   7.8,   9.7,   0.0,  0.00, 
 05/11/10, 03:00,   1.0,  90,   6.1,   7.8,   9.7,   0.0,  0.00, 
 05/11/10, 04:00,   0.7,  96,   6.0,   7.6,   9.7,   0.0,  0.00, 
 05/11/10, 05:00,   1.1,  94,   5.9,   7.6,   9.7,   0.0,  0.00, 
 05/11/10, 06:00,   1.1,  90,   5.9,   7.6,   9.7,   0.0,  0.00, 
 05/11/10, 07:00,   1.7,  77,   5.8,   7.6,   9.7,   0.0,  0.00, 
 05/11/10, 08:00,   2.8,  78,   5.7,   7.5,   9.7,   0.0,  0.53, 
 05/11/10, 09:00,   4.2,  68,   5.6,   7.5,   9.6,   0.0,  1.30, 
 05/11/10, 10:00,   6.2,  64,   5.7,   7.5,   9.6,   0.0,  1.85, 
 05/11/10, 11:00,   7.5,  47,   6.1,   7.4,   9.6,   0.0,  2.21, 
 05/11/10, 12:00,   7.0,  51,   6.5,   7.4,   9.7,   0.0,  2.38, 
 05/11/10, 13:00,   7.4,  57,   7.0,   7.4,   9.7,   0.0,  2.25, 
 05/11/10, 14:00,   8.4,  48,   7.5,   7.4,   9.6,   0.0,  1.87, 
 05/11/10, 15:00,   8.0,  31,   7.8,   7.5,   9.6,   0.0,  1.30, 
 05/11/10, 16:00,   8.1,  29,   7.8,   7.6,   9.6,   0.0,  0.57, 
 05/11/10, 17:00,   4.7,  56,   7.7,   7.7,   9.6,   0.0,  0.05, 
 05/11/10, 18:00,   3.2,  56,   7.5,   7.8,   9.6,   0.0,  0.00, 
 05/11/10, 19:00,   3.4,  56,   7.2,   7.8,   9.6,   0.0,  0.00, 
 05/11/10, 20:00,   4.5,  53,   7.1,   7.9,   9.5,   0.0,  0.00, 
 05/11/10, 21:00,   2.8,  58,   6.8,   7.9,   9.5,   0.0,  0.00, 
 05/11/10, 22:00,   3.5,  47,   6.6,   7.9,   9.4,   0.0,  0.00, 
 05/11/10, 23:00,   3.3,  46,   6.5,   7.8,   9.4,   0.0,  0.00, 
 05/11/11, 00:00,   1.9,  62,   6.3,   7.8,   9.4,   0.0,  0.00, 
 05/11/11, 01:00,   2.2,  61,   6.2,   7.7,   9.4,   0.0,  0.00, 
 05/11/11, 02:00,   2.7,  54,   6.0,   7.6,   9.4,   0.0,  0.00, 
 05/11/11, 03:00,   3.9,  42,   5.9,   7.6,   9.4,   0.0,  0.00, 
 05/11/11, 04:00,   5.3,  36,   5.8,   7.5,   9.4,   0.0,  0.00, 
 05/11/11, 05:00,   5.2,  42,   5.5,   7.4,   9.4,   0.0,  0.00, 
 05/11/11, 06:00,   4.6,  48,   5.5,   7.4,   9.4,   0.0,  0.00, 
 05/11/11, 07:00,   5.4,  46,   5.4,   7.3,   9.4,   0.0,  0.01, 
 05/11/11, 08:00,   8.5,  43,   5.4,   7.3,   9.4,   0.0,  0.40, 
 05/11/11, 09:00,   9.6,  42,   5.4,   7.2,   9.4,   0.0,  0.69, 
 05/11/11, 10:00,   9.9,  41,   5.6,   7.2,   9.4,   0.0,  0.88, 
 05/11/11, 11:00,  10.7,  41,   5.9,   7.2,   9.4,   0.0,  1.07, 
 05/11/11, 12:00,  11.0,  42,   6.2,   7.2,   9.3,   0.0,  1.22, 
 05/11/11, 13:00,  10.3,  43,   6.6,   7.2,   9.3,   0.0,  0.57, 
 05/11/11, 14:00,  10.4,  42,   6.8,   7.2,   9.3,   0.0,  0.46, 
 05/11/11, 15:00,  10.3,  43,   7.0,   7.2,   9.3,   0.0,  0.32, 
 05/11/11, 16:00,   9.4,  52,   7.2,   7.2,   9.3,   0.0,  0.12, 
 05/11/11, 17:00,   9.7,  42,   7.2,   7.4,   9.3,   0.0,  0.01, 
 05/11/11, 18:00,   7.5,  65,   7.2,   7.5,   9.2,   0.0,  0.00, 
 05/11/11, 19:00,   5.7,  81,   7.2,   7.5,   9.2,   0.0,  0.00, 
 05/11/11, 20:00,   6.5,  97,   7.2,   7.5,   9.2,   0.0,  0.00, 
 05/11/11, 21:00,   6.7,  99,   7.1,   7.5,   9.2,   0.0,  0.00, 
 05/11/11, 22:00,   5.9,  99,   7.2,   7.6,   9.2,   0.0,  0.00, 
 05/11/11, 23:00,   5.8,  99,   7.1,   7.6,   9.2,   0.0,  0.00, 
 05/11/12, 00:00,   5.6,  99,   7.0,   7.6,   9.2,   0.0,  0.00, 
 05/11/12, 01:00,   5.6,  98,   7.0,   7.6,   9.2,   0.5,  0.00, 
 05/11/12, 02:00,   4.8,  99,   7.0,   7.6,   9.2,   0.0,  0.00, 
 05/11/12, 03:00,   4.4,  99,   6.9,   7.6,   9.1,   3.0,  0.00, 
 05/11/12, 04:00,   3.7,  99,   6.8,   7.5,   9.1,   5.5,  0.00, 
 05/11/12, 05:00,   3.3,  99,   6.8,   7.6,   9.1,   4.0,  0.00, 
 05/11/12, 06:00,   3.5,  99,   6.7,   7.5,   9.1,   1.0,  0.00, 
 05/11/12, 07:00,   3.8,  99,   6.6,   7.5,   9.0,   0.0,  0.00, 
 05/11/12, 08:00,   4.4,  99,   6.6,   7.5,   9.0,   0.0,  0.15, 
 05/11/12, 09:00,   4.7,  99,   6.6,   7.4,   9.0,   0.0,  0.37, 
 05/11/12, 10:00,   5.0,  96,   6.7,   7.5,   9.0,   0.0,  0.63, 
 05/11/12, 11:00,   3.7,  99,   6.8,   7.5,   9.0,   0.0,  0.29, 
 05/11/12, 12:00,   3.0,  96,   6.9,   7.4,   9.0,   0.0,  0.21, 
 05/11/12, 13:00,   4.7,  96,   6.9,   7.4,   9.0,   0.0,  1.10, 
 05/11/12, 14:00,   5.4,  90,   7.1,   7.5,   9.0,   0.0,  1.45, 
 05/11/12, 15:00,   4.7,  72,   7.3,   7.5,   9.0,   0.0,  0.74, 
 05/11/12, 16:00,   4.5,  70,   7.4,   7.6,   9.0,   0.0,  0.52, 
 05/11/12, 17:00,   3.2,  77,   7.3,   7.6,   9.0,   0.0,  0.05, 
 05/11/12, 18:00,   2.3,  82,   7.2,   7.5,   9.0,   0.0,  0.00, 
 05/11/12, 19:00,   0.7,  94,   7.0,   7.7,   9.0,   0.0,  0.00, 
 05/11/12, 20:00,   0.3,  87,   6.8,   7.7,   9.0,   0.0,  0.00, 
 05/11/12, 21:00,   0.6,  75,   6.6,   7.7,   9.0,   0.0,  0.00, 
 05/11/12, 22:00,  -0.8,  84,   6.4,   7.6,   9.0,   0.0,  0.00, 
 05/11/12, 23:00,  -1.6,  88,   6.2,   7.5,   9.0,   0.0,  0.00, 
 05/11/13, 00:00,   0.5,  73,   6.1,   7.6,   9.0,   0.0,  0.00, 
 05/11/13, 01:00,  -0.7,  81,   5.9,   7.5,   9.0,   0.0,  0.00, 
 05/11/13, 02:00,   1.4,  67,   5.6,   7.4,   9.0,   0.0,  0.00, 
 05/11/13, 03:00,   1.1,  64,   5.5,   7.3,   9.0,   0.0,  0.00, 
 05/11/13, 04:00,  -1.8,  75,   5.4,   7.2,   9.0,   0.0,  0.00, 
 05/11/13, 05:00,  -0.4,  71,   5.3,   7.2,   8.9,   0.0,  0.00, 
 05/11/13, 06:00,   1.6,  52,   5.2,   7.2,   8.9,   0.0,  0.00, 
 05/11/13, 07:00,   1.7,  47,   5.0,   7.1,   8.9,   0.0,  0.01, 
 05/11/13, 08:00,   3.6,  44,   4.9,   7.0,   8.9,   0.0,  0.40, 
 05/11/13, 09:00,   6.1,  34,   4.8,   7.0,   8.9,   0.0,  1.02, 
 05/11/13, 10:00,   7.8,  41,   4.8,   6.9,   8.9,   0.0,  1.54, 
 05/11/13, 11:00,   7.5,  43,   5.0,   6.8,   8.9,   0.0,  1.90, 
 05/11/13, 12:00,   8.2,  43,   5.4,   6.8,   9.0,   0.0,  2.02, 
 05/11/13, 13:00,   8.3,  58,   5.8,   6.7,   8.9,   0.0,  2.00, 
 05/11/13, 14:00,   8.2,  53,   6.3,   6.7,   9.0,   0.0,  1.53, 
 05/11/13, 15:00,   8.0,  45,   6.7,   6.8,   8.9,   0.0,  0.92, 
 05/11/13, 16:00,   6.9,  58,   6.9,   6.8,   8.9,   0.0,  0.32, 
 05/11/13, 17:00,   6.4,  57,   6.9,   6.9,   8.9,   0.0,  0.04, 
 05/11/13, 18:00,   5.6,  58,   6.7,   7.0,   8.9,   0.0,  0.00, 
 05/11/13, 19:00,   4.6,  64,   6.7,   7.1,   8.9,   0.0,  0.00, 
 05/11/13, 20:00,   5.1,  61,   6.5,   7.1,   8.8,   0.0,  0.00, 
 05/11/13, 21:00,   4.9,  60,   6.3,   7.1,   8.9,   0.0,  0.00, 
 05/11/13, 22:00,   4.4,  61,   6.2,   7.1,   8.7,   0.0,  0.00, 
 05/11/13, 23:00,   5.2,  54,   6.0,   7.1,   8.7,   0.0,  0.00, 
 05/11/14, 00:00,   5.9,  49,   5.9,   7.1,   8.7,   0.0,  0.00, 
 05/11/14, 01:00,   5.9,  52,   5.8,   7.1,   8.7,   0.0,  0.00, 
 05/11/14, 02:00,   6.3,  55,   5.7,   7.1,   8.7,   0.0,  0.00, 
 05/11/14, 03:00,   6.7,  56,   5.6,   7.0,   8.7,   0.0,  0.00, 
 05/11/14, 04:00,   6.6,  58,   5.6,   7.0,   8.7,   0.0,  0.00, 
 05/11/14, 05:00,   6.2,  62,   5.6,   7.0,   8.7,   0.0,  0.00, 
 05/11/14, 06:00,   6.2,  62,   5.6,   6.9,   8.8,   0.0,  0.00, 
 05/11/14, 07:00,   7.0,  56,   5.5,   6.9,   8.7,   0.0,  0.00, 
 05/11/14, 08:00,   7.0,  55,   5.6,   6.9,   8.7,   0.0,  0.16, 
 05/11/14, 09:00,   7.6,  52,   5.6,   6.9,   8.7,   0.0,  0.46, 
 05/11/14, 10:00,   7.4,  49,   5.8,   6.9,   8.7,   0.0,  0.60, 
 05/11/14, 11:00,   7.7,  52,   5.9,   6.8,   8.7,   0.0,  0.51, 
 05/11/14, 12:00,   7.4,  51,   6.1,   6.9,   8.7,   0.0,  0.77, 
 05/11/14, 13:00,   8.0,  51,   6.3,   6.9,   8.7,   0.0,  0.47, 
 05/11/14, 14:00,   6.0,  68,   6.4,   6.9,   8.6,   0.0,  0.50, 
 05/11/14, 15:00,   4.1,  94,   6.5,   6.9,   8.6,   0.0,  0.19, 
 05/11/14, 16:00,   3.1,  93,   6.6,   7.0,   8.6,   0.0,  0.11, 
 05/11/14, 17:00,   3.3,  95,   6.5,   7.0,   8.6,   0.0,  0.00, 
 05/11/14, 18:00,   3.4,  93,   6.5,   7.0,   8.6,   0.0,  0.00, 
 05/11/14, 19:00,   3.2,  97,   6.4,   7.1,   8.7,   0.0,  0.00, 
 05/11/14, 20:00,   3.8,  96,   6.4,   7.1,   8.6,   0.0,  0.00, 
 05/11/14, 21:00,   3.8,  92,   6.3,   7.1,   8.6,   0.0,  0.00, 
 05/11/14, 22:00,   3.1,  93,   6.3,   7.1,   8.6,   0.0,  0.00, 
 05/11/14, 23:00,   3.8,  89,   6.2,   7.1,   8.6,   0.0,  0.00, 
 05/11/15, 00:00,   2.5,  99,   6.1,   7.1,   8.6,   0.0,  0.00, 
 05/11/15, 01:00,   2.4,  99,   6.1,   7.1,   8.6,   0.0,  0.00, 
 05/11/15, 02:00,   2.3,  99,   6.1,   7.1,   8.6,   0.0,  0.00, 
 05/11/15, 03:00,   1.4,  99,   6.0,   7.1,   8.6,   0.0,  0.00, 
 05/11/15, 04:00,   0.7,  99,   6.0,   7.0,   8.6,   0.0,  0.00, 
 05/11/15, 05:00,   0.4,  99,   6.0,   7.0,   8.6,   0.0,  0.00, 
 05/11/15, 06:00,   0.3,  99,   5.9,   7.0,   8.6,   0.0,  0.00, 
 05/11/15, 07:00,  -0.3,  99,   5.9,   7.0,   8.6,   0.0,  0.00, 
 05/11/15, 08:00,  -0.1,  99,   5.8,   7.0,   8.6,   0.0,  0.00, 
 05/11/15, 09:00,   0.0,  99,   5.7,   7.0,   8.6,   0.0,  0.19, 
 05/11/15, 10:00,   1.0,  99,   5.7,   6.9,   8.5,   0.0,  1.22, 
 05/11/15, 11:00,   0.7,  99,   5.9,   6.9,   8.5,   0.0,  0.55, 
 05/11/15, 12:00,   1.7,  99,   6.0,   6.9,   8.5,   0.0,  1.16, 
 05/11/15, 13:00,   1.9,  99,   6.2,   6.9,   8.5,   0.0,  0.92, 
 05/11/15, 14:00,   2.8,  93,   6.4,   6.9,   8.5,   0.0,  1.26, 
 05/11/15, 15:00,   3.1,  80,   6.5,   6.9,   8.5,   0.0,  1.25, 
 05/11/15, 16:00,   1.5,  96,   6.5,   7.0,   8.5,   0.0,  0.56, 
 05/11/15, 17:00,   0.5,  98,   6.5,   7.0,   8.5,   0.0,  0.06, 
 05/11/15, 18:00,  -0.2,  99,   6.4,   7.0,   8.5,   0.0,  0.00, 
 05/11/15, 19:00,   0.2,  97,   6.2,   7.0,   8.5,   0.0,  0.00, 
 05/11/15, 20:00,  -0.2,  91,   6.1,   7.0,   8.5,   0.0,  0.00, 
 05/11/15, 21:00,   0.5,  76,   5.9,   7.0,   8.5,   0.0,  0.00, 
 05/11/15, 22:00,   1.1,  68,   5.8,   7.0,   8.5,   0.0,  0.00, 
 05/11/15, 23:00,   0.6,  69,   5.6,   7.0,   8.5,   0.0,  0.00, 
 05/11/16, 00:00,   0.4,  69,   5.5,   7.0,   8.5,   0.0,  0.00, 
 05/11/16, 01:00,  -0.1,  75,   5.4,   6.9,   8.5,   0.0,  0.00, 